Location: Fort Wayne
(41.1310°N, 85.1290°W)
Time: 23:46:51
(UTC-04:00)

BREEZE-M DEB (TANK) - Visible Passes

Search period start: 22 October 2014 00:00
Search period end: 01 November 2014 00:00
Orbit: 285 x 13635 km, 49.6° (Epoch: 21 October)

Date Brightness Start Highest point End Pass type
(mag) Time Alt. Az. Time Alt. Az. Time Alt. Az.
22 Oct 3.1 06:22:24 36° SW 06:24:03 88° SSE 06:35:04 10° ENE visible
24 Oct 4.3 05:13:12 33° ESE 05:13:12 33° ESE 05:18:52 10° ENE visible
25 Oct 3.7 06:46:17 24° W 06:48:54 64° NNW 07:02:38 10° ENE visible
27 Oct 3.1 05:36:46 69° E 05:36:46 69° E 05:45:02 10° ENE visible
28 Oct 4.4 07:09:39 15° W 07:13:36 54° N 07:30:57 10° ENE visible
29 Oct 5.6 04:27:01 16° ENE 04:27:01 16° ENE 04:28:58 10° ENE visible
30 Oct 3.0 05:59:48 63° NW 06:00:11 66° NNW 06:11:04 10° ENE visible
31 Oct 4.9 07:32:38 10° WNW 07:38:00 52° N 08:00:27 10° E visible
